Total_Precipitation_Accumulation
1.74 1.72 1.62 1.63 1.72 1.76 1.85 1.94 1.88 1.74 1.71 1.61 1.26 1.04 1.04 1.15 1.34 1.19 1.12 1.04 0.95 0.88 0.80 0.82 0.87 0.95 1.05 1.17 1.35 1.53 1.60 1.62 1.63 1.59 1.63 1.75 1.82 1.88
1.51 1.53 1.51 1.52 1.63 1.66 1.73 1.86 1.96 1.97 1.81 1.63 1.44 1.18 1.17 1.08 1.19 1.18 1.15 1.08 0.91 0.79 0.69 0.67 0.71 0.79 0.89 0.95 1.03 1.15 1.21 1.22 1.26 1.32 1.34 1.35 1.38 1.46
1.20 1.22 1.29 1.39 1.53 1.58 1.62 1.69 1.89 2.06 1.94 1.84 1.71 1.58 1.45 1.29 1.13 1.13 1.14 1.07 0.90 0.77 0.64 0.60 0.64 0.67 0.71 0.80 0.89 1.00 1.08 1.11 1.12 1.15 1.19 1.21 1.22 1.25
1.10 1.19 1.25 1.37 1.49 1.47 1.54 1.62 1.81 2.04 2.11 2.24 2.28 2.03 1.74 1.51 1.39 1.24 1.01 0.92 0.92 0.79 0.64 0.58 0.56 0.59 0.62 0.67 0.74 0.87 0.99 1.05 1.08 1.10 1.10 1.10 1.15 1.20
1.11 1.19 1.18 1.22 1.30 1.34 1.45 1.57 1.72 1.87 2.05 2.15 2.28 2.11 1.92 1.63 1.63 1.44 1.19 1.11 0.90 0.84 0.73 0.62 0.56 0.56 0.57 0.62 0.68 0.74 0.82 0.93 0.97 1.07 1.13 1.12 1.13 1.16
1.05 1.04 1.00 1.02 1.11 1.20 1.26 1.42 1.57 1.71 1.83 1.88 2.02 2.08 2.11 2.07 2.01 1.78 1.61 1.41 1.14 0.90 0.85 0.68 0.61 0.58 0.56 0.56 0.61 0.69 0.79 0.90 0.95 1.00 1.08 1.14 1.18 1.22
0.99 0.92 0.80 0.80 0.83 0.87 0.94 1.18 1.35 1.50 1.65 1.76 1.88 2.06 2.17 2.30 2.16 2.03 1.90 1.77 1.52 1.31 1.28 1.00 0.85 0.71 0.60 0.58 0.59 0.62 0.69 0.83 0.93 1.01 1.07 1.10 1.17 1.26
0.86 0.88 0.78 0.67 0.62 0.64 0.66 0.79 0.97 1.14 1.38 1.64 1.82 2.04 2.13 2.10 2.21 2.20 2.13 1.99 1.86 1.67 1.63 1.59 1.42 1.25 1.00 0.74 0.68 0.60 0.57 0.67 0.83 0.93 1.06 1.15 1.20 1.25
0.72 0.78 0.68 0.60 0.58 0.55 0.59 0.66 0.71 0.78 0.92 1.25 1.53 1.65 1.68 1.69 1.94 2.12 2.12 2.05 2.01 1.89 1.88 1.96 1.84 1.59 1.22 1.02 0.89 0.72 0.63 0.60 0.67 0.78 0.85 0.97 1.09 1.19
0.63 0.68 0.70 0.71 0.63 0.61 0.61 0.66 0.64 0.64 0.67 0.75 0.92 1.07 1.25 1.40 1.62 1.91 2.15 2.12 2.13 2.09 2.03 2.15 2.06 1.90 1.55 1.19 0.98 0.77 0.68 0.67 0.70 0.76 0.81 0.84 0.91 1.02
0.63 0.64 0.67 0.72 0.65 0.54 0.55 0.61 0.65 0.67 0.59 0.62 0.65 0.77 0.91 1.06 1.25 1.50 1.77 2.04 2.30 2.33 2.12 2.16 2.12 2.12 2.09 1.67 1.25 0.99 0.78 0.72 0.70 0.72 0.75 0.78 0.81 0.89
0.78 0.78 0.63 0.57 0.56 0.43 0.47 0.59 0.60 0.62 0.58 0.59 0.61 0.63 0.69 0.82 0.95 1.16 1.36 1.60 1.86 2.03 2.01 2.07 2.20 2.46 2.58 2.17 1.62 1.18 0.96 0.90 0.82 0.73 0.72 0.73 0.76 0.71
0.80 0.82 0.74 0.53 0.45 0.41 0.39 0.48 0.54 0.52 0.58 0.65 0.72 0.74 0.75 0.80 0.87 0.97 1.20 1.34 1.41 1.38 1.40 1.71 1.91 2.14 2.45 2.39 2.15 1.75 1.40 1.13 0.94 0.84 0.81 0.83 0.84 0.79
0.87 0.86 0.73 0.54 0.45 0.41 0.36 0.37 0.37 0.35 0.44 0.56 0.65 0.71 0.74 0.76 0.83 0.94 1.11 1.28 1.41 1.35 1.29 1.48 1.66 1.84 1.89 1.89 1.92 1.96 1.91 1.70 1.41 1.17 1.01 1.05 1.03 1.06
0.75 0.80 0.72 0.51 0.43 0.44 0.43 0.37 0.33 0.33 0.41 0.48 0.55 0.64 0.67 0.72 0.83 0.99 1.18 1.29 1.33 1.30 1.21 1.33 1.50 1.65 1.70 1.64 1.60 1.65 1.75 1.74 1.65 1.56 1.49 1.36 1.22 1.16
0.65 0.67 0.68 0.61 0.50 0.52 0.54 0.45 0.39 0.44 0.48 0.48 0.54 0.61 0.66 0.75 0.86 0.95 1.06 1.20 1.31 1.25 1.22 1.30 1.44 1.57 1.57 1.53 1.47 1.41 1.48 1.61 1.69 1.77 1.80 1.72 1.57 1.46
0.71 0.79 0.80 0.85 0.77 0.73 0.75 0.70 0.64 0.67 0.65 0.62 0.62 0.64 0.70 0.75 0.81 0.92 1.02 1.09 1.17 1.21 1.21 1.27 1.36 1.47 1.46 1.43 1.41 1.32 1.29 1.30 1.46 1.72 1.90 1.90 1.70 1.57
0.69 0.82 0.93 0.96 0.94 0.95 0.94 0.92 0.90 0.85 0.83 0.83 0.79 0.75 0.77 0.81 0.82 0.88 0.99 1.06 1.06 1.09 1.18 1.19 1.25 1.38 1.45 1.37 1.18 1.12 1.11 1.14 1.18 1.36 1.59 1.74 1.65 1.54
0.73 0.84 0.98 1.03 1.04 1.05 1.00 0.96 0.97 0.92 0.92 0.93 0.91 0.90 0.91 0.94 0.92 0.91 0.98 1.05 1.03 1.00 1.05 1.16 1.14 1.18 1.21 1.17 1.03 0.84 0.94 1.04 1.07 1.07 1.15 1.30 1.38 1.35
0.80 0.94 1.06 1.06 1.09 1.09 1.02 0.98 0.99 0.96 0.94 0.94 0.94 0.93 0.93 0.99 1.00 0.96 0.95 1.00 1.02 1.00 1.02 1.05 1.06 1.02 1.01 1.01 0.95 0.83 0.69 0.88 1.02 1.04 1.02 1.06 1.07 1.15
0.93 1.03 1.05 1.04 1.07 1.05 1.00 0.98 1.01 0.99 0.96 0.98 0.96 0.95 0.95 1.03 1.06 1.05 1.02 1.05 1.03 0.96 0.93 0.96 0.96 0.96 1.01 1.11 1.06 0.95 0.83 0.76 0.86 0.94 0.99 1.05 1.02 0.99
0.90 0.93 0.92 0.90 0.92 0.94 0.95 0.97 1.04 1.03 1.03 1.03 0.97 0.95 0.96 1.02 1.04 1.04 1.02 1.00 1.01 0.97 0.93 0.94 0.96 1.00 1.05 1.09 1.07 1.01 0.96 0.91 0.86 0.88 0.91 0.93 0.90 0.84
0.82 0.86 0.87 0.85 0.82 0.88 0.91 0.94 0.99 1.02 0.99 0.96 0.93 0.92 0.91 0.97 0.96 0.95 0.97 0.94 0.94 0.96 1.00 1.01 1.03 1.05 1.05 1.11 1.16 1.14 1.04 1.01 1.01 0.96 0.83 0.75 0.70 0.65